Weather Roundup
Issued by NWS

Home | Current Version | Previous Version | Graphics & Text | Print | Product List | Glossary Off
Versions: 1 2 3 4 5 6 7 8 9 10 11 12 13 14 15 16 17 18 19 20 21 22 23 24 25 26 27 28 29 30 31 32 33 34 35 36 37 38 39 40 41 42 43 44 45 46 47 48 49 50

971
NZUS93 KARX 262210
HRRWXR

CURRENT HOURLY OBSERVATIONS ACROSS
MUCH OF THE UPPER MISSISSIPPI VALLEY
NATIONAL WEATHER SERVICE LA CROSSE WI
500 PM CDT WED APR 26 2017


...SOUTHEAST MINNESOTA...


CITY           SKY/WX    TMP DP  RH WIND       PRES   REMARKS
ROCHESTER      CLOUDY    39  38  96 NW15      29.53R WCI  31
ROCHESTER/MAYO CLOUDY    39  38  96 W12G21    29.53R WCI  32
WINONA         CLOUDY    43  37  81 W9        29.52R
AUSTIN         CLOUDY    41  36  81 NW14      29.53S
ALBERT LEA     CLOUDY    39  36  87 NW13G21   29.55R WCI  32
DODGE CENTER   CLOUDY    39  36  87 NW13G20   29.53R WCI  32
PRESTON        CLOUDY    39  36  87 NW14      29.53R WCI  31
OWATONNA       CLOUDY    39  36  87 NW18      29.54R WCI  30
FARIBAULT      CLOUDY    39  36  87 W12G17    29.55R WCI  32
$$

...ELSEWHERE IN MINNESOTA...


CITY           SKY/WX    TMP DP  RH WIND       PRES   REMARKS
MINNEAPOLIS    CLOUDY    41  32  70 N10       29.54F
INTNL FALLS    LGT SNOW  27  22  81 NE14G20   29.71F VSB 3/4 WCI  16
DULUTH         LGT SNOW  33  31  92 N9        29.57R VSB 1   WCI  25
RED WING       CLOUDY    43  36  75 NW9       29.52R
REDWOOD FALLS  LGT RAIN  37  31  78 NW16G22   29.61R WCI  28
MANKATO        CLOUDY    38  33  82 NW18      29.57R WCI  28
WORTHINGTON    CLOUDY    35  31  85 NW21      29.61F WCI  24
FAIRMONT       CLOUDY    39  34  82 NW18      29.58S WCI  30
$$

...SOUTHWEST WISCONSIN...


CITY           SKY/WX    TMP DP  RH WIND       PRES   REMARKS
LA CROSSE      CLOUDY    47  42  83 W10       29.49R
PRAIRIE DU CHI CLOUDY    49  42  79 W10       29.50R
BOSCOBEL       CLOUDY    51  46  83 SW9       29.50R
LONE ROCK      CLOUDY    53  51  93 SW13G18   29.48R FOG
PLATTEVILLE    CLOUDY    51  50  99 SW14      29.51R
FORT MC COY    CLOUDY    45  43  95 W9        29.47F
CAMP DOUGLAS   CLOUDY    48  46  93 W13       29.45R FOG
MAUSTON-NEW LI CLOUDY    50  48  91 NW9       29.44R FOG
VIROQUA        CLOUDY    45  44  97 W7        29.48R
WIS DELLS      CLOUDY    57  52  82 SW9       29.44R
$$

...ELSEWHERE IN WISCONSIN...


CITY           SKY/WX    TMP DP  RH WIND       PRES   REMARKS
MILWAUKEE      CLOUDY    73  56  54 SW20G28   29.46R
MADISON        CLOUDY    60  53  77 SW12G18   29.46R
GREEN BAY      PTSUNNY   67  61  81 S14       29.40R
EAU CLAIRE     CLOUDY    41  36  82 NW7       29.49R
BLACK RVR FLS  CLOUDY    45  43  94 W10       29.47R
MEDFORD        CLOUDY    41  40  96 W7        29.43R
WAUSAU         CLOUDY    51  49  92 W10       29.40R
WIS RAPIDS     CLOUDY    49  47  93 W8        29.45R
MARSHFIELD     CLOUDY    44  41  89 W14       29.44R
RICE LAKE      CLOUDY    38  34  88 N8        29.50F WCI  32
$$

...NORTHEAST IOWA...


CITY           SKY/WX    TMP DP  RH WIND       PRES   REMARKS
WATERLOO       CLOUDY    46  38  73 NW10G20   29.53S
DUBUQUE        CLOUDY    49  46  90 W13       29.51R
DECORAH        CLOUDY    45  39  81 NW9G17    29.50R
MASON CITY     CLOUDY    42  36  79 NW20      29.56F
CHARLES CITY   CLOUDY    45  39  81 NW16      29.54S
OELWEIN        CLOUDY    46  43  87 NW16      29.52S
$$

...ELSEWHERE IN IOWA...


CITY           SKY/WX    TMP DP  RH WIND       PRES   REMARKS
DES MOINES     CLOUDY    48  39  71 NW15      29.57F
IOWA CITY      CLOUDY    51  43  74 NW10      29.54F
FORT DODGE     CLOUDY    43  34  70 NW12G17   29.59F
MARSHALLTOWN   CLOUDY    47  39  74 NW15      29.55S
CEDAR RAPIDS   CLOUDY    50  44  80 NW13      29.52S
$$

...NORTHERN ILLINOIS...


CITY           SKY/WX    TMP DP  RH WIND       PRES   REMARKS
CHICAGO-OHARE  CLOUDY    72  56  57 SW12      29.48R
CHICAGO-MIDWAY CLOUDY    75  55  49 SW16G29   29.48R
MOLINE         CLOUDY    52  46  80 W8        29.53R
ROCKFORD       LGT RAIN  61  54  77 SW10      29.51R
PEORIA         CLOUDY    59  56  89 W8        29.53R
$$

NOTE: "FAIR" INDICATES FEW OR NO CLOUDS BELOW 12,000 FEET WITH NO
SIGNIFICANT WEATHER AND/OR OBSTRUCTIONS TO VISIBILITY. WIND
SPEEDS ARE IN MILES-PER-HOUR.




USA.gov is the U.S. government's official web portal to all federal, state and local government web resources and services.